Holmes Reef Observation History
Time Wind Speed Temp Pressure Rel. Hum Rain
03/07:30am SE 25-29 kts 25.5°c 1017.2 hPa n/a n/a
03/07:00am ESE 24-28 kts 25.2°c 1017.0 hPa n/a n/a
03/06:30am SE 24-28 kts 25.3°c 1016.6 hPa n/a n/a
03/06:00am ESE 24-28 kts 25.2°c 1016.1 hPa n/a n/a
03/05:30am SE 25-29 kts 25.2°c 1015.7 hPa n/a n/a
03/05:00am SE 25-30 kts 25.2°c 1015.5 hPa n/a n/a
03/04:30am SE 24-28 kts 24.9°c 1015.4 hPa n/a n/a
03/04:00am SE 26-30 kts 25.1°c 1015.3 hPa n/a n/a
03/03:30am SE 23-27 kts 25.0°c 1015.3 hPa n/a n/a
03/03:00am SE 24-28 kts 25.0°c 1015.4 hPa n/a n/a
03/02:30am ESE 23-27 kts 24.9°c 1015.6 hPa n/a n/a
03/02:00am ESE 23-28 kts 24.8°c 1015.8 hPa n/a n/a
03/01:30am ESE 23-26 kts 24.9°c 1016.3 hPa n/a n/a
03/01:00am ESE 22-25 kts 24.9°c 1016.7 hPa n/a n/a
03/12:30am ESE 22-24 kts 25.0°c 1017.1 hPa n/a n/a
03/12:00am SE 22-26 kts 25.0°c 1017.1 hPa n/a n/a
Time Wind Speed Temp Pressure Rel. Hum Rain
02/11:30pm SE 22-26 kts 24.9°c 1017.2 hPa n/a n/a
02/11:00pm SE 23-27 kts 24.8°c 1017.5 hPa n/a n/a
02/10:30pm SE 23-27 kts 24.8°c 1017.6 hPa n/a n/a
02/10:00pm SE 23-27 kts 25.0°c 1017.7 hPa n/a n/a
02/09:30pm SE 23-28 kts 25.0°c 1017.6 hPa n/a n/a
02/09:00pm SE 23-29 kts 25.1°c 1017.4 hPa n/a n/a
02/08:30pm SE 23-26 kts 25.0°c 1017.3 hPa n/a n/a
02/08:00pm SE 23-28 kts 25.0°c 1017.1 hPa n/a n/a
02/07:30pm SE 23-26 kts 25.1°c 1016.7 hPa n/a n/a
02/07:00pm SE 23-27 kts 25.1°c 1016.4 hPa n/a n/a
02/06:30pm SE 22-27 kts 25.1°c 1016.4 hPa n/a n/a
02/06:00pm SSE 21-25 kts 25.2°c 1016.1 hPa n/a n/a
02/05:30pm SSE 20-23 kts 25.1°c 1015.8 hPa n/a n/a
02/05:00pm SSE 21-24 kts 25.2°c 1015.5 hPa n/a n/a
02/04:30pm SSE 20-23 kts 25.2°c 1015.4 hPa n/a n/a
02/04:00pm SSE 18-21 kts 25.4°c 1015.2 hPa n/a n/a
02/03:30pm SSE 19-21 kts 25.5°c 1015.3 hPa n/a n/a
02/03:00pm SSE 18-21 kts 25.6°c 1015.3 hPa n/a n/a
02/02:30pm SSE 18-21 kts 25.4°c 1015.3 hPa n/a n/a
02/02:00pm SSE 17-20 kts 25.3°c 1015.5 hPa n/a n/a
02/01:30pm SSE 17-19 kts 25.4°c 1015.7 hPa n/a n/a
02/01:00pm SSE 17-20 kts 25.5°c 1016.1 hPa n/a n/a
02/12:30pm SE 16-18 kts 25.1°c 1016.2 hPa n/a n/a
02/12:00pm SE 17-19 kts 25.1°c 1016.6 hPa n/a n/a
02/11:30am SE 18-21 kts 25.1°c 1016.6 hPa n/a n/a
02/11:00am SE 18-20 kts 25.2°c 1016.9 hPa n/a n/a
02/10:30am SE 18-20 kts 25.0°c 1017.0 hPa n/a n/a
02/10:00am SE 17-19 kts 25.0°c 1017.0 hPa n/a n/a
02/09:30am SE 17-19 kts 25.1°c 1017.2 hPa n/a n/a
02/09:00am SE 17-21 kts 25.0°c 1017.2 hPa n/a n/a
02/08:30am SE 16-19 kts 24.9°c 1017.0 hPa n/a n/a
02/08:00am SE 16-18 kts 25.0°c 1016.8 hPa n/a n/a
02/07:30am SE 15-19 kts 24.9°c 1016.7 hPa n/a n/a
02/07:00am SE 16-17 kts 24.7°c 1016.4 hPa n/a n/a
02/06:30am SE 14-17 kts 24.6°c 1016.2 hPa n/a n/a
02/06:00am SE 14-17 kts 24.6°c 1015.9 hPa n/a n/a
02/05:30am SE 15-18 kts 24.6°c 1015.6 hPa n/a n/a
02/05:00am SE 13-15 kts 24.7°c 1015.5 hPa n/a n/a
02/04:30am SE 13-16 kts 24.6°c 1015.3 hPa n/a n/a
02/04:00am SE 14-17 kts 24.7°c 1014.9 hPa n/a n/a
02/03:30am ESE 14-17 kts 24.7°c 1015.0 hPa n/a n/a
02/03:00am ESE 14-17 kts 24.8°c 1015.0 hPa n/a n/a
02/02:30am ESE 15-18 kts 24.8°c 1015.2 hPa n/a n/a
02/02:00am ESE 14-16 kts 24.8°c 1015.3 hPa n/a n/a
02/01:30am ESE 14-17 kts 24.9°c 1015.7 hPa n/a n/a
02/01:00am ESE 13-16 kts 24.9°c 1015.9 hPa n/a n/a
02/12:30am ESE 14-16 kts 24.9°c 1016.2 hPa n/a n/a
02/12:00am ESE 14-16 kts 25.1°c 1016.6 hPa n/a n/a
Time Wind Speed Temp Pressure Rel. Hum Rain
01/11:30pm ESE 15-18 kts 25.1°c 1016.9 hPa n/a n/a
01/11:00pm ESE 15-18 kts 25.2°c 1017.0 hPa n/a n/a
01/10:30pm ESE 15-17 kts 25.2°c 1017.0 hPa n/a n/a
01/10:00pm ESE 16-19 kts 25.2°c 1017.0 hPa n/a n/a
01/09:30pm ESE 16-19 kts 25.2°c 1017.0 hPa n/a n/a
01/09:00pm SE 16-19 kts 25.2°c 1017.0 hPa n/a n/a
01/08:30pm SE 15-17 kts 25.3°c 1016.9 hPa n/a n/a
01/08:00pm SE 16-18 kts 25.4°c 1016.6 hPa n/a n/a
01/07:30pm SE 15-19 kts 25.3°c 1016.2 hPa n/a n/a
01/07:00pm SE 15-17 kts 25.4°c 1015.9 hPa n/a n/a
01/06:30pm SE 15-18 kts 25.4°c 1015.6 hPa n/a n/a
01/06:00pm SE 15-17 kts 25.4°c 1015.5 hPa n/a n/a
01/05:30pm SE 14-17 kts 25.6°c 1015.2 hPa n/a n/a
01/05:00pm SE 13-16 kts 25.8°c 1015.0 hPa n/a n/a
01/04:30pm SE 13-15 kts 25.7°c 1014.9 hPa n/a n/a
01/04:00pm SE 13-16 kts 25.8°c 1014.6 hPa n/a n/a
01/03:30pm SE 14-16 kts 25.6°c 1014.5 hPa n/a n/a
01/03:00pm SE 13-15 kts 25.7°c 1014.5 hPa n/a n/a
01/02:30pm SE 13-14 kts 25.7°c 1014.6 hPa n/a n/a
01/02:00pm SE 13-16 kts 25.8°c 1014.6 hPa n/a n/a
01/01:30pm SE 14-16 kts 25.8°c 1014.9 hPa n/a n/a
01/01:00pm SE 14-15 kts 25.6°c 1015.1 hPa n/a n/a
01/12:30pm ESE 14-16 kts 25.7°c 1015.5 hPa n/a n/a
01/12:00pm ESE 14-16 kts 25.5°c 1016.0 hPa n/a n/a
01/11:30am ESE 15-17 kts 25.5°c 1016.2 hPa n/a n/a
01/11:00am ESE 15-17 kts 25.6°c 1016.5 hPa n/a n/a
01/10:30am ESE 15-19 kts 25.3°c 1016.8 hPa n/a n/a
01/10:00am ESE 15-17 kts 25.3°c 1017.1 hPa n/a n/a
01/09:30am ESE 15-17 kts 25.4°c 1017.0 hPa n/a n/a
01/09:00am ESE 15-17 kts 25.3°c 1016.9 hPa n/a n/a
01/08:30am ESE 15-17 kts 25.3°c 1016.7 hPa n/a n/a
01/08:00am ESE 16-17 kts 25.3°c 1016.3 hPa n/a n/a
01/07:30am E 15-17 kts 25.3°c 1015.9 hPa n/a n/a
01/07:00am ESE 16-18 kts 25.2°c 1015.7 hPa n/a n/a
01/06:30am ESE 16-19 kts 25.1°c 1015.5 hPa n/a n/a
01/06:00am E 17-20 kts 25.2°c 1015.3 hPa n/a n/a
01/05:30am ESE 18-20 kts 25.2°c 1015.0 hPa n/a n/a
01/05:00am ESE 19-21 kts 25.0°c 1014.9 hPa n/a n/a
01/04:30am ESE 19-21 kts 25.0°c 1015.0 hPa n/a n/a
01/04:00am ESE 19-22 kts 25.0°c 1014.9 hPa n/a n/a
01/03:30am E 17-20 kts 25.1°c 1015.2 hPa n/a n/a
01/03:00am E 17-20 kts 25.1°c 1015.4 hPa n/a n/a
01/01:30am ESE 18-21 kts 25.4°c 1016.0 hPa n/a n/a
01/01:00am ESE 18-21 kts 25.1°c 1016.2 hPa n/a n/a